When you browse on this site, cookies collect data to enhance your experience and personalize the content and advertising you see.
Visit our Privacy Policy to learn more. By continuing to use the site, you agree to this use of cookies and data.

Hourly Weather Chorozinho

Today, 5 July, Sunday

Time Temperature Precipitation Wind Pressure Humidity
00:00 +25°C° 0 mm 1 mps 755 mmHg 95%
01:00 +24°C° 0 mm 1 mps 755 mmHg 95%
02:00 +24°C° 0 mm 1 mps 754 mmHg 95%
03:00 +24°C° 0 mm 1 mps 754 mmHg 96%
04:00 +23°C° 0 mm 1 mps 754 mmHg 95%
05:00 +23°C° 0 mm 1 mps 754 mmHg 95%
06:00 +22°C° 0 mm 1 mps 755 mmHg 95%
07:00 +24°C° 0 mm 2 mps 755 mmHg 85%
08:00 +26°C° 0 mm 2 mps 755 mmHg 76%
09:00 +28°C° 0 mm 3 mps 756 mmHg 66%
10:00 +29°C° 0 mm 3 mps 756 mmHg 63%
11:00 +30°C° 0 mm 3 mps 755 mmHg 60%
12:00 +33°C° 0 mm 3 mps 755 mmHg 57%
13:00 +33°C° 0 mm 3 mps 754 mmHg 59%
14:00 +32°C° 0 mm 2 mps 754 mmHg 61%
15:00 +32°C° 0 mm 2 mps 753 mmHg 64%
16:00 +30°C° 0 mm 2 mps 753 mmHg 70%
17:00 +28°C° 0 mm 2 mps 754 mmHg 76%
18:00 +27°C° 0 mm 2 mps 754 mmHg 83%
19:00 +26°C° 0.2 mm 2 mps 754 mmHg 85%
20:00 +26°C° 0.2 mm 1 mps 755 mmHg 88%
21:00 +25°C° 0.2 mm 1 mps 755 mmHg 91%
22:00 +25°C° 0.7 mm 1 mps 755 mmHg 92%
23:00 +25°C° 0.7 mm 2 mps 755 mmHg 93%

Tomorrow, 6 July, Monday

Time Temperature Precipitation Wind Pressure Humidity
00:00 +25°C° 0.7 mm 2 mps 755 mmHg 95%
01:00 +25°C° 0.4 mm 2 mps 755 mmHg 95%
02:00 +24°C° 0.4 mm 2 mps 755 mmHg 96%
03:00 +24°C° 0.4 mm 2 mps 754 mmHg 96%
04:00 +24°C° 0.4 mm 1 mps 754 mmHg 96%
05:00 +24°C° 0.4 mm 1 mps 755 mmHg 96%
06:00 +24°C° 0.4 mm 1 mps 755 mmHg 96%
07:00 +25°C° 0.1 mm 2 mps 755 mmHg 94%
08:00 +25°C° 0.1 mm 2 mps 756 mmHg 91%
09:00 +26°C° 0.1 mm 2 mps 756 mmHg 88%
10:00 +27°C° 0.3 mm 2 mps 755 mmHg 83%
11:00 +29°C° 0.3 mm 3 mps 755 mmHg 78%
12:00 +30°C° 0.3 mm 3 mps 755 mmHg 72%
13:00 +30°C° 1.6 mm 2 mps 754 mmHg 75%
14:00 +30°C° 1.6 mm 2 mps 754 mmHg 78%
15:00 +29°C° 1.6 mm 2 mps 753 mmHg 80%
16:00 +28°C° 1.2 mm 2 mps 753 mmHg 84%
17:00 +27°C° 1.2 mm 1 mps 753 mmHg 88%
18:00 +26°C° 1.2 mm 1 mps 754 mmHg 91%
19:00 +25°C° 0.4 mm 1 mps 754 mmHg 92%
20:00 +25°C° 0.4 mm 1 mps 754 mmHg 93%
21:00 +25°C° 0.4 mm 1 mps 755 mmHg 93%
22:00 +25°C° 0.3 mm 1 mps 755 mmHg 94%
23:00 +25°C° 0.3 mm 1 mps 755 mmHg 94%

Day after tomorrow, 7 July, Tuesday

Time Temperature Precipitation Wind Pressure Humidity
00:00 +24°C° 0.3 mm 1 mps 755 mmHg 95%
01:00 +24°C° 0 mm 1 mps 754 mmHg 95%
02:00 +24°C° 0 mm 1 mps 754 mmHg 95%
03:00 +24°C° 0 mm 1 mps 753 mmHg 95%
04:00 +24°C° 0 mm 1 mps 754 mmHg 95%
05:00 +23°C° 0 mm 1 mps 754 mmHg 95%
06:00 +23°C° 0 mm 1 mps 754 mmHg 95%
07:00 +25°C° 0 mm 2 mps 755 mmHg 88%
08:00 +26°C° 0 mm 3 mps 755 mmHg 82%
09:00 +28°C° 0 mm 3 mps 755 mmHg 75%
10:00 +29°C° 0 mm 3 mps 755 mmHg 71%
11:00 +30°C° 0 mm 3 mps 755 mmHg 66%
12:00 +31°C° 0 mm 3 mps 754 mmHg 62%
13:00 +31°C° 0.1 mm 3 mps 754 mmHg 62%
14:00 +31°C° 0.1 mm 3 mps 753 mmHg 63%
15:00 +31°C° 0.1 mm 2 mps 753 mmHg 63%
16:00 +30°C° 0.1 mm 2 mps 753 mmHg 70%
17:00 +28°C° 0.1 mm 2 mps 753 mmHg 78%
18:00 +26°C° 0.1 mm 1 mps 753 mmHg 85%
19:00 +26°C° 0 mm 1 mps 753 mmHg 88%
20:00 +25°C° 0 mm 1 mps 754 mmHg 91%
21:00 +25°C° 0 mm 1 mps 754 mmHg 94%
22:00 +25°C° 0.1 mm 1 mps 754 mmHg 94%
23:00 +24°C° 0.1 mm 1 mps 754 mmHg 94%

8 July, Wednesday

Time Temperature Precipitation Wind Pressure Humidity
00:00 +24°C° 0.1 mm 1 mps 754 mmHg 94%
01:00 +24°C° 0 mm 1 mps 754 mmHg 94%
02:00 +24°C° 0 mm 1 mps 754 mmHg 93%
03:00 +24°C° 0 mm 1 mps 753 mmHg 92%
04:00 +24°C° 0 mm 1 mps 753 mmHg 93%
05:00 +24°C° 0 mm 1 mps 754 mmHg 93%
06:00 +24°C° 0 mm 1 mps 754 mmHg 93%
07:00 +25°C° 0 mm 2 mps 754 mmHg 86%
08:00 +27°C° 0 mm 2 mps 755 mmHg 80%
09:00 +28°C° 0 mm 2 mps 755 mmHg 74%
10:00 +29°C° 0 mm 2 mps 755 mmHg 70%
11:00 +30°C° 0 mm 2 mps 755 mmHg 65%
12:00 +33°C° 0 mm 3 mps 754 mmHg 61%
13:00 +32°C° 0 mm 2 mps 754 mmHg 61%
14:00 +32°C° 0 mm 2 mps 753 mmHg 61%
15:00 +32°C° 0 mm 2 mps 753 mmHg 61%
16:00 +30°C° 0 mm 2 mps 753 mmHg 69%
17:00 +28°C° 0 mm 2 mps 754 mmHg 78%
18:00 +26°C° 0 mm 2 mps 754 mmHg 86%
19:00 +26°C° 0 mm 1 mps 754 mmHg 88%
20:00 +25°C° 0 mm 1 mps 755 mmHg 90%
21:00 +25°C° 0 mm 1 mps 755 mmHg 93%
22:00 +25°C° 0.1 mm 1 mps 755 mmHg 94%
23:00 +25°C° 0.1 mm 1 mps 755 mmHg 95%

9 July, Thursday

Time Temperature Precipitation Wind Pressure Humidity
00:00 +25°C° 0.1 mm 1 mps 755 mmHg 96%
01:00 +25°C° 0.9 mm 1 mps 755 mmHg 96%
02:00 +24°C° 0.9 mm 2 mps 754 mmHg 96%
03:00 +24°C° 0.9 mm 2 mps 754 mmHg 96%
04:00 +24°C° 0.1 mm 2 mps 754 mmHg 96%
05:00 +24°C° 0.1 mm 2 mps 755 mmHg 97%
06:00 +23°C° 0.1 mm 1 mps 755 mmHg 97%
07:00 +25°C° 0 mm 2 mps 756 mmHg 91%
08:00 +26°C° 0 mm 3 mps 756 mmHg 85%
09:00 +28°C° 0 mm 3 mps 757 mmHg 79%
10:00 +29°C° 0.5 mm 3 mps 756 mmHg 76%
11:00 +30°C° 0.5 mm 3 mps 756 mmHg 74%
12:00 +30°C° 0.5 mm 3 mps 755 mmHg 71%
13:00 +30°C° 0.6 mm 3 mps 755 mmHg 71%
14:00 +30°C° 0.6 mm 2 mps 755 mmHg 72%
15:00 +30°C° 0.6 mm 2 mps 754 mmHg 73%
16:00 +29°C° 0.5 mm 2 mps 754 mmHg 79%
17:00 +27°C° 0.5 mm 2 mps 754 mmHg 84%
18:00 +26°C° 0.5 mm 1 mps 754 mmHg 90%
19:00 +25°C° 0.1 mm 1 mps 755 mmHg 92%
20:00 +25°C° 0.1 mm 1 mps 755 mmHg 93%
21:00 +25°C° 0.1 mm 1 mps 756 mmHg 94%
22:00 +25°C° 0.1 mm 1 mps 756 mmHg 94%
23:00 +25°C° 0.1 mm 1 mps 756 mmHg 94%

10 July, Friday

Time Temperature Precipitation Wind Pressure Humidity
00:00 +25°C° 0.1 mm 1 mps 756 mmHg 94%
01:00 +24°C° 0.1 mm 1 mps 755 mmHg 95%
02:00 +24°C° 0.1 mm 1 mps 755 mmHg 95%
03:00 +24°C° 0.1 mm 1 mps 755 mmHg 96%
04:00 +23°C° 0 mm 2 mps 755 mmHg 96%
05:00 +23°C° 0 mm 2 mps 755 mmHg 97%
06:00 +23°C° 0 mm 2 mps 756 mmHg 97%
07:00 +24°C° 0 mm 2 mps 756 mmHg 90%
08:00 +26°C° 0 mm 3 mps 756 mmHg 84%
09:00 +27°C° 0 mm 3 mps 757 mmHg 77%
10:00 +29°C° 0 mm 3 mps 756 mmHg 72%
11:00 +30°C° 0 mm 3 mps 756 mmHg 66%
12:00 +31°C° 0 mm 3 mps 756 mmHg 60%
13:00 +33°C° 0 mm 3 mps 755 mmHg 59%
14:00 +32°C° 0 mm 2 mps 755 mmHg 58%
15:00 +32°C° 0 mm 2 mps 754 mmHg 56%
16:00 +30°C° 0 mm 2 mps 754 mmHg 66%
17:00 +28°C° 0 mm 2 mps 755 mmHg 76%
18:00 +26°C° 0 mm 2 mps 755 mmHg 86%
19:00 +25°C° 0 mm 2 mps 755 mmHg 88%
20:00 +25°C° 0 mm 1 mps 755 mmHg 91%
21:00 +24°C° 0 mm 1 mps 756 mmHg 94%
22:00 +25°C° 0.1 mm 1 mps 756 mmHg 95%
23:00 +25°C° 0.1 mm 1 mps 756 mmHg 95%
Show more